Temp
25 26 26 27 25 26 26 26 29 28 26 27 28 26 24 25 25 21 24 23 23 22 21 20 20 20 20 20 20 20 20 19 19 19 19 18 18 18 18 17 16 16 16 15 16 17 18 18 17
25 26 27 25 25 26 26 28 26 26 27 28 29 27 25 24 25 24 23 22 23 22 21 19 19 19 19 20 19 19 19 20 19 19 18 18 18 18 18 17 16 16 15 15 15 17 18 18 17
25 26 25 26 27 26 25 28 26 27 28 29 28 26 25 23 23 24 23 23 23 22 21 21 20 19 19 19 19 19 19 19 19 19 18 18 18 18 18 17 17 16 15 15 16 17 18 18 17
26 27 26 26 27 27 27 27 27 27 28 28 28 23 23 23 23 23 22 23 22 22 22 21 20 19 19 20 19 19 19 19 19 18 18 18 18 18 17 17 17 17 17 17 17 17 17 18 18
26 26 26 28 27 28 27 28 29 28 28 28 29 23 22 23 23 23 22 23 22 22 21 20 20 19 19 19 19 19 19 18 18 18 18 18 18 17 17 16 16 16 16 17 17 17 18 18 18
25 27 26 26 27 28 27 28 29 29 27 28 27 24 21 22 22 22 22 22 22 21 21 20 19 19 18 18 18 18 18 18 18 18 18 18 17 17 17 16 16 16 16 16 16 17 17 17 17
26 25 25 27 26 27 27 28 28 28 28 26 27 24 21 21 21 21 21 20 20 20 20 20 19 19 19 19 18 18 18 18 18 18 18 18 17 17 17 17 17 16 16 16 16 16 16 17 17
23 26 28 28 26 27 26 27 27 27 25 27 24 24 21 20 20 20 20 19 18 19 19 19 19 19 18 18 19 18 18 18 18 18 18 18 17 17 17 17 17 17 17 16 16 16 16 16 16
26 24 25 28 28 27 26 26 27 26 26 23 22 20 19 20 20 21 20 20 19 18 17 17 17 17 16 18 18 18 18 18 18 18 18 17 17 16 16 17 17 17 17 17 16 16 15 15 15
25 24 25 26 27 27 26 26 25 26 25 23 20 19 20 20 21 21 20 19 18 17 16 16 16 16 15 16 17 18 18 18 18 18 18 18 17 17 17 17 17 17 17 17 16 15 14 14 14
26 24 26 26 24 24 26 26 27 26 25 21 22 18 19 19 19 19 18 17 16 16 15 15 15 16 16 16 16 18 18 18 19 18 18 17 17 17 16 16 16 16 16 16 16 15 15 15 15
24 26 26 24 23 25 25 26 25 25 20 19 18 19 19 18 17 16 16 15 15 15 14 13 13 14 15 16 16 18 18 18 17 17 17 16 16 16 16 15 15 15 14 14 14 15 14 14 15
24 25 25 24 23 23 23 24 24 22 18 18 18 19 17 16 17 16 15 14 14 13 12 12 13 14 14 16 17 17 18 16 16 15 15 16 15 15 15 14 15 14 14 14 14 14 13 14 13
23 24 24 23 23 23 22 23 22 23 18 17 18 17 16 15 15 15 14 13 12 12 11 10 11 14 14 15 16 17 16 15 16 15 14 14 15 15 14 14 14 14 14 13 13 13 14 13 13
24 22 23 23 23 23 22 21 20 21 18 18 17 16 15 15 15 14 13 12 12 10 10 10 11 12 13 15 15 15 15 15 16 14 14 14 15 14 14 13 13 12 13 13 12 12 12 12 12
23 23 22 24 22 21 21 21 23 18 18 17 17 15 15 14 14 13 12 12 11 10 11 11 11 12 13 14 14 14 14 14 14 13 12 12 13 13 12 11 11 11 12 12 11 11 11 11 11
22 21 22 22 22 20 19 22 20 19 19 18 17 16 15 13 13 12 11 11 10 10 11 10 11 12 12 12 12 12 12 12 12 11 11 10 10 11 11 10 10 10 10 10 10 10 10 10 11
22 21 23 23 21 21 19 19 20 18 18 18 17 16 15 14 13 12 11 11 10 10 9 9 9 10 10 10 10 10 10 10 10 10 10 10 10 10 10 9 9 9 10 9 9 9 9 9 10
23 22 22 24 21 21 20 20 22 19 18 17 17 16 14 14 12 11 10 10 9 9 8 9 9 9 10 10 9 9 8 8 8 8 8 8 8 8 9 8 7 8 8 8 8 8 8 7 10
21 21 20 22 20 20 20 20 22 20 18 18 18 16 14 11 10 11 10 10 10 9 9 9 10 10 11 10 9 9 8 7 6 6 7 7 8 8 8 8 7 7 8 8 8 7 7 6 7
21 20 20 21 20 20 18 18 19 21 20 19 18 17 15 12 10 9 10 10 10 10 10 10 10 10 10 10 9 8 7 6 6 6 6 6 7 7 8 8 8 7 8 7 7 6 6 6 6
19 22 21 21 20 18 18 17 20 20 20 18 16 15 13 12 11 10 10 10 10 9 9 9 9 9 9 9 9 8 7 5 5 5 5 6 7 7 7 7 7 7 6 6 5 5 5 5 4
20 20 21 20 18 17 18 17 19 20 21 18 15 13 13 11 11 9 9 9 8 8 8 8 8 8 9 9 9 9 7 5 5 5 5 5 5 6 6 7 6 6 5 5 5 5 4 4 3
18 18 18 18 17 14 17 18 18 20 20 20 15 13 12 11 9 9 9 8 7 7 7 7 7 7 8 9 9 8 6 5 4 4 4 5 5 5 5 4 4 4 4 4 3 3 4 3 3
18 17 16 14 14 14 18 17 19 20 20 20 16 14 12 11 10 8 7 7 6 6 6 6 7 6 7 7 7 7 6 6 6 5 5 4 3 3 3 4 4 4 4 4 4 4 3 3 2
15 17 14 15 14 15 14 14 17 15 14 16 15 13 12 10 10 8 7 7 6 6 6 6 6 6 6 6 6 6 6 6 5 5 4 3 3 3 3 4 4 4 4 4 3 3 2 2 1
16 15 19 15 9 11 15 16 19 14 13 14 13 12 12 10 9 8 7 7 6 6 6 6 5 5 6 6 6 5 5 5 4 3 3 3 3 3 3 4 3 3 3 3 2 2 1 1 -0
16 17 14 14 12 13 16 16 18 13 13 11 12 12 12 11 10 8 7 7 6 6 5 5 5 5 5 5 5 5 5 4 3 3 3 3 3 3 3 3 3 3 2 2 1 1 0 -0 -1
14 15 16 16 14 13 14 17 20 19 15 12 13 13 12 11 10 8 8 7 6 6 5 5 5 5 4 4 4 4 3 3 3 3 3 3 3 3 3 2 2 2 2 1 1 0 -0 -1 -1
17 16 16 16 14 14 13 18 17 17 15 13 13 13 12 10 9 8 8 6 6 5 5 5 4 4 4 4 3 3 3 3 3 2 3 3 3 2 2 2 1 1 1 1 0 -0 -1 -1 -2
Height
789 789 788 787 811 803 820 820 799 809 813 805 801 808 821 817 826 850 831 831 832 833 836 839 841 843 846 848 849 851 852 853 855 855 856 856 857 857 858 859 859 859 859 858 858 858 858 858 858
790 789 787 788 815 825 828 807 816 812 808 803 802 807 816 829 819 826 830 833 833 835 838 841 843 845 847 849 851 853 855 855 856 857 857 858 860 860 860 861 860 861 862 860 860 860 859 859 860
791 792 795 800 806 823 827 806 813 809 803 803 808 805 814 830 824 829 833 833 834 837 838 841 844 847 848 851 853 855 855 856 857 858 859 861 862 862 863 863 863 863 863 862 862 862 860 861 861
793 791 791 812 815 809 808 806 806 810 806 802 805 825 825 830 829 832 834 834 836 839 840 842 845 848 849 852 854 856 856 857 859 860 861 862 863 865 865 865 865 864 865 865 864 863 863 863 863
793 791 809 807 815 808 804 801 800 808 807 808 805 828 832 833 832 833 834 835 837 839 840 843 845 848 850 852 854 856 857 858 859 861 862 864 865 866 866 867 867 867 867 866 865 865 864 865 865
800 794 817 822 813 807 804 801 803 805 808 809 812 822 836 835 834 835 835 836 838 839 842 843 845 847 849 852 854 856 858 859 860 861 863 865 865 866 868 868 869 869 868 868 868 868 868 867 867
803 809 818 808 815 813 809 801 806 806 809 816 809 825 834 836 836 836 836 836 838 841 843 844 845 847 849 851 853 855 857 859 860 862 863 865 866 867 868 868 870 870 871 870 872 871 870 869 869
805 807 810 805 816 817 806 805 803 808 818 810 813 827 835 835 835 836 837 838 839 839 840 842 844 846 848 850 852 854 856 858 860 861 861 863 864 866 867 869 870 870 871 872 873 872 871 871 871
800 820 824 809 809 808 805 811 806 807 812 818 823 828 832 833 834 836 837 839 840 841 842 843 844 845 846 849 850 853 856 858 860 861 862 863 865 866 867 869 870 871 872 874 874 874 874 873 872
808 820 815 802 799 805 806 807 811 813 815 823 828 830 832 833 833 835 837 839 841 842 843 842 843 844 845 848 850 853 855 857 859 860 861 863 865 866 867 868 869 871 874 874 875 876 876 876 875
805 819 808 806 805 805 807 810 805 812 818 822 821 829 831 833 834 836 839 841 842 843 843 843 842 843 844 846 849 852 855 858 860 860 861 863 864 866 868 869 870 871 873 874 875 875 875 875 874
819 807 807 809 810 810 811 807 812 813 824 822 823 826 830 833 836 838 839 841 842 842 843 842 842 842 843 846 849 853 855 856 857 860 861 864 866 868 869 870 871 872 873 874 875 875 876 876 876
815 809 808 809 812 812 812 815 815 817 821 823 826 827 831 834 836 838 839 840 841 841 841 840 840 841 843 846 849 850 851 854 856 858 861 863 864 867 869 870 872 873 875 876 876 876 876 876 877
812 811 810 810 812 813 818 816 816 812 818 824 826 829 832 834 835 836 838 839 840 840 839 839 840 839 841 843 845 848 850 853 856 858 860 862 864 866 867 869 871 872 873 875 875 876 877 877 877
812 821 814 812 812 815 815 823 819 811 817 823 826 830 832 834 835 836 838 839 839 839 839 840 840 840 842 843 845 848 851 854 857 860 861 862 862 863 866 868 869 870 872 874 875 875 876 876 876
819 817 826 803 810 817 819 826 802 811 818 823 826 830 832 835 836 837 838 839 839 839 839 840 841 841 842 844 846 849 853 855 858 860 862 863 864 866 867 868 869 870 871 872 873 874 875 876 876
819 832 823 819 809 817 825 818 812 812 817 821 823 825 829 833 835 836 837 839 839 840 840 841 841 842 844 846 848 850 853 855 858 861 863 865 866 867 868 869 871 872 872 872 873 874 874 875 875
826 827 816 815 815 813 824 823 814 813 815 816 817 820 824 828 832 835 837 839 839 840 841 842 843 844 846 847 850 853 855 857 860 863 865 867 868 869 869 871 873 873 873 874 874 875 875 875 873
810 815 819 802 807 812 816 813 805 808 811 813 812 816 821 825 830 834 837 838 839 841 842 843 844 846 847 849 852 854 858 860 862 865 866 867 868 870 872 873 875 875 875 876 877 878 877 875 873
812 818 820 807 810 813 812 810 798 800 800 799 801 807 814 823 828 832 834 836 838 840 842 844 846 848 849 849 852 854 858 862 864 867 868 869 870 871 873 875 876 878 879 879 879 881 881 880 880
811 816 817 816 812 812 818 817 805 791 786 790 792 796 804 814 823 828 831 832 835 839 841 843 844 846 848 849 851 854 859 864 867 869 869 871 872 873 875 877 878 879 880 881 883 884 884 884 884
820 803 808 811 820 834 814 829 795 786 785 786 790 795 801 809 817 824 827 830 832 836 839 841 843 844 846 849 850 853 856 861 867 869 872 872 872 873 875 877 880 882 883 885 886 887 887 888 887
808 803 805 808 822 824 821 828 789 780 780 782 785 791 798 805 812 820 824 827 830 835 838 840 843 846 847 849 850 853 857 862 867 870 873 875 877 877 877 877 879 883 885 887 889 890 890 890 890
804 811 814 816 824 840 816 816 786 776 768 763 777 787 793 802 810 817 823 826 829 833 837 840 842 845 847 848 851 854 857 862 866 870 873 875 877 878 880 881 882 882 884 886 889 890 890 889 890
805 817 836 844 846 832 797 807 775 760 755 757 768 780 788 797 806 814 819 823 826 830 834 838 841 843 846 847 850 853 857 861 864 868 871 876 879 881 882 883 883 884 886 887 889 892 893 894 892
812 809 833 838 832 821 814 807 776 767 763 757 761 774 785 795 802 809 815 818 822 826 830 834 837 840 842 845 848 852 855 858 863 867 871 874 877 880 883 885 884 885 888 889 891 891 892 894 894
807 814 794 817 850 839 800 778 758 768 770 766 770 775 782 790 798 805 811 815 818 823 828 832 836 839 842 845 848 852 856 859 863 868 872 874 876 879 883 885 885 885 888 889 890 891 892 893 894
791 790 818 821 838 829 787 779 762 769 766 772 770 770 777 787 795 801 807 811 817 822 827 832 836 838 841 844 847 851 855 858 862 866 870 873 875 879 882 884 885 887 890 889 891 890 892 891 893
796 797 794 794 808 814 801 766 729 734 746 759 760 764 769 778 786 795 801 806 812 818 824 829 834 836 839 842 845 848 851 856 859 864 869 873 875 877 880 883 883 885 888 888 891 890 889 891 890
768 776 781 790 801 792 794 735 735 736 739 747 754 760 767 775 783 790 796 802 808 813 819 824 830 834 838 841 844 848 851 854 858 863 867 870 873 876 880 881 882 884 885 885 887 888 889 887 887
Wind_Speed
7 11 9 5 2 3 5 3 3 4 8 6 4 9 12 12 6 5 5 10 6 15 15 16 13 12 12 12 12 12 11 11 10 11 12 12 13 14 15 15 16 16 15 16 15 13 13 13 12
7 10 4 3 2 5 4 6 9 8 7 5 3 6 11 9 7 9 8 7 9 13 11 13 13 11 11 11 10 10 10 10 11 11 11 11 11 12 14 15 16 16 14 14 14 13 12 11 10
9 6 2 2 2 5 5 7 8 7 3 2 4 9 6 5 9 6 7 7 11 13 12 11 13 11 10 9 9 9 9 10 10 10 10 10 9 11 12 13 14 15 15 14 13 12 12 10 9
6 4 3 1 7 6 9 8 9 8 5 5 6 9 7 13 6 6 8 8 11 11 11 11 11 10 8 6 7 7 7 8 9 9 8 7 9 9 11 12 14 15 16 15 15 14 13 11 8
4 3 3 1 8 4 8 7 1 6 4 4 2 6 6 10 11 10 9 9 9 10 7 7 12 10 9 7 7 6 6 7 7 7 7 7 8 8 10 11 13 14 15 17 16 15 14 13 11
3 1 3 3 6 6 6 5 4 4 7 2 6 8 4 8 10 9 10 10 9 10 8 4 12 11 10 8 6 5 5 6 6 6 6 5 7 8 9 10 11 13 16 17 18 16 14 13 12
3 2 6 6 7 5 6 3 3 4 5 6 6 6 6 10 6 9 10 10 12 9 7 6 3 10 8 8 7 6 6 6 5 5 5 6 7 7 7 8 10 12 15 16 17 18 16 14 13
3 1 4 3 5 6 6 5 5 6 5 5 6 2 5 4 5 8 10 10 8 9 8 8 6 7 7 6 7 8 8 6 5 5 5 7 8 7 7 7 8 12 12 14 17 17 16 15 13
2 2 3 3 4 5 7 5 0 1 4 6 5 5 5 4 7 9 10 10 9 7 4 2 6 5 5 9 5 9 8 6 4 3 4 5 6 7 8 5 7 9 8 9 11 15 16 15 14
1 2 6 7 6 5 8 5 9 4 7 5 7 9 8 9 8 9 8 11 9 7 5 3 1 4 4 4 6 5 9 9 5 4 5 6 5 10 8 5 4 5 7 7 7 12 12 11 12
1 2 5 5 8 9 6 1 3 3 4 7 7 9 8 11 10 10 10 9 7 5 4 5 3 3 5 6 7 9 4 5 4 2 4 5 6 8 6 5 4 4 4 4 6 7 6 9 11
3 2 4 4 3 4 3 2 2 4 4 8 9 10 8 8 9 8 7 6 6 6 6 5 4 2 3 9 8 7 5 7 7 8 8 6 6 5 5 4 5 4 4 2 5 4 5 6 8
4 3 1 4 3 3 4 3 5 5 9 9 8 8 7 8 7 8 6 6 6 6 4 4 2 4 2 11 11 12 12 14 11 10 10 8 10 10 8 6 4 4 2 2 3 3 5 4 4
5 4 5 6 5 3 2 5 5 4 11 9 7 7 6 7 4 7 6 5 4 3 3 5 7 6 10 11 16 16 15 14 14 13 12 11 11 11 10 7 6 4 3 4 3 4 6 7 7
2 4 7 8 6 2 5 7 8 7 9 9 8 6 6 5 5 5 3 4 4 3 5 6 7 9 14 18 18 18 17 16 12 13 12 12 10 10 8 6 6 6 4 3 3 3 4 6 7
4 4 3 3 10 4 5 7 5 11 10 9 9 8 7 5 6 6 4 5 4 5 6 7 9 13 17 20 21 22 21 21 19 17 16 16 14 13 15 16 16 13 11 9 9 9 9 9 9
6 5 7 4 8 6 8 5 6 8 8 9 9 8 7 7 7 6 5 5 4 6 8 10 12 16 21 23 25 26 24 22 19 17 17 19 18 17 16 17 15 13 13 13 13 14 13 12 12
7 6 7 6 8 7 7 11 6 10 10 10 10 9 8 7 6 6 5 7 7 8 10 12 17 22 25 27 26 25 23 21 20 19 18 16 16 15 16 16 15 14 14 15 13 16 12 14 14
9 8 8 5 4 6 9 11 10 13 9 10 10 9 9 8 10 9 8 9 10 11 12 16 24 23 24 25 23 22 22 22 22 20 18 19 18 17 17 18 18 17 19 19 16 17 17 23 20
10 10 10 8 8 3 7 11 9 12 12 17 14 11 11 9 8 12 12 12 11 13 16 20 19 13 13 16 19 18 22 22 23 22 22 22 21 21 22 21 22 22 23 23 24 19 19 23 28
8 8 7 8 5 4 6 8 12 10 14 14 10 9 10 14 11 9 16 16 16 15 15 15 14 15 14 17 22 25 26 23 23 23 25 24 23 23 23 22 22 21 22 24 22 22 21 19 19
9 7 11 7 4 4 6 5 6 9 13 15 11 9 10 12 11 12 17 20 19 16 15 16 15 17 19 20 27 24 24 24 21 23 23 22 22 23 22 22 21 21 21 22 22 20 20 19 20
5 4 2 1 6 5 8 9 9 15 18 13 14 11 10 11 13 11 17 21 19 18 17 18 18 19 17 19 22 23 26 25 24 23 23 22 21 20 20 20 19 19 19 19 18 18 19 19 17
8 5 2 1 1 6 12 13 7 13 14 7 12 13 12 13 11 14 19 22 20 18 18 18 19 19 19 21 21 26 28 27 25 21 20 19 18 17 17 17 18 18 17 17 16 15 15 15 15
5 6 2 2 2 7 1 9 16 4 2 6 16 18 14 15 14 12 16 20 22 22 21 21 22 22 21 22 23 24 25 24 23 20 19 17 16 16 15 15 15 16 15 14 12 12 12 12 12
9 9 5 7 5 4 3 7 6 2 6 3 14 16 15 15 14 14 18 20 24 25 24 24 25 26 25 25 25 23 23 23 20 19 18 17 16 15 13 12 12 11 10 10 9 9 9 9 9
6 9 9 3 2 2 6 7 7 5 3 2 11 16 17 17 15 15 20 21 25 27 26 27 26 25 25 25 26 24 22 21 21 19 18 17 16 14 11 9 8 8 7 7 6 6 6 7 7
4 5 3 2 3 6 5 9 10 6 11 8 13 18 17 17 16 14 20 22 24 27 26 24 25 27 26 25 24 23 22 21 21 20 19 17 15 13 10 8 6 6 4 5 4 5 4 5 6
4 4 5 5 5 4 5 8 3 13 14 18 15 18 20 20 18 16 21 24 28 28 27 26 26 26 26 25 24 24 23 23 21 19 18 16 15 12 10 7 6 4 2 3 3 3 4 6 6
7 9 10 5 7 7 2 20 2 5 9 15 16 16 17 17 17 15 21 23 26 28 29 29 27 27 27 26 26 25 24 23 21 19 18 17 14 12 9 8 6 3 1 1 2 3 5 6 7
Wind_Direction
339 331 313 293 331 124 114 56 94 111 89 76 31 80 80 48 33 95 102 60 108 144 156 154 152 150 146 138 128 121 115 114 112 109 109 95 78 71 69 69 67 63 59 56 55 56 57 57 56
338 333 261 278 254 122 81 135 81 73 87 108 117 135 85 67 66 98 81 48 123 143 142 161 159 155 150 146 136 127 123 119 114 113 108 94 77 74 67 68 67 63 62 58 54 52 54 58 56
336 304 314 272 320 50 121 100 105 101 133 199 111 43 49 9 30 77 76 67 127 142 143 166 163 159 152 157 148 137 125 120 117 116 114 107 91 81 73 72 67 64 63 61 54 49 48 49 58
324 206 274 295 81 6 108 95 110 116 104 332 76 87 84 33 63 83 81 84 117 139 154 165 169 158 155 160 156 140 129 125 122 120 119 117 110 91 80 74 66 59 56 54 49 43 40 45 53
246 269 276 299 60 84 49 87 72 77 86 103 354 82 85 70 79 88 75 84 111 140 159 164 172 164 171 171 165 158 148 132 119 118 120 122 124 94 83 74 67 61 55 51 48 45 44 48 54
301 236 287 175 120 98 106 120 160 133 107 131 109 100 81 70 81 81 85 88 102 124 127 135 173 176 170 180 183 174 159 150 135 133 134 137 132 108 94 82 70 57 48 46 43 43 45 54 59
294 336 291 332 121 129 132 132 218 146 154 49 342 100 114 76 80 96 95 103 100 103 116 120 162 206 201 197 189 183 173 166 153 141 138 141 147 131 115 91 73 57 50 42 38 38 40 45 53
308 304 324 287 143 191 113 176 34 19 65 123 3 63 142 106 124 113 101 93 100 120 129 144 169 177 178 214 212 195 185 181 172 171 165 168 169 151 131 108 84 54 45 37 42 37 37 44 47
267 315 263 245 289 130 126 148 353 45 116 62 37 61 96 108 140 141 125 106 82 61 74 126 167 202 212 199 203 207 198 195 199 216 204 191 184 153 133 109 62 22 30 25 38 36 38 37 39
312 318 352 2 33 47 146 220 151 178 140 118 106 103 104 91 95 97 67 75 63 44 20 355 231 191 199 201 204 195 207 196 215 263 228 207 199 166 157 147 98 36 16 13 36 52 43 45 36
60 291 0 46 36 350 115 271 39 237 227 41 157 121 105 99 81 80 77 68 54 44 28 1 340 256 189 186 185 195 188 188 211 214 219 179 157 154 165 157 125 76 67 28 33 49 36 42 37
293 91 351 34 54 338 105 52 177 247 94 76 75 105 117 92 83 74 65 56 41 42 27 6 17 24 197 153 172 176 182 169 125 125 118 110 118 127 141 107 96 90 110 52 49 33 56 22 16
234 151 107 85 111 279 41 275 242 139 124 104 102 113 105 94 89 91 71 67 47 39 14 325 343 111 152 143 161 170 157 124 120 112 109 112 104 99 89 72 65 69 7 66 106 2 13 12 2
17 351 243 162 203 193 226 252 127 195 137 134 154 128 101 94 80 100 70 62 54 55 1 39 66 98 157 163 171 164 146 136 122 114 112 109 104 100 96 102 97 87 61 27 17 2 351 333 346
335 284 229 225 205 254 166 270 224 153 147 153 169 137 128 121 110 92 97 81 67 51 72 88 107 121 140 154 154 140 129 125 121 105 104 105 102 99 98 94 79 79 74 51 21 358 354 338 337
239 203 253 314 160 157 170 269 220 134 154 170 177 164 160 133 123 104 87 76 75 88 97 110 125 136 144 141 135 127 122 116 111 105 97 90 93 98 103 95 86 81 82 72 60 48 42 30 10
198 258 221 169 174 131 189 277 146 156 182 186 175 174 175 142 124 96 93 96 100 107 115 118 126 138 136 131 128 124 121 117 116 111 106 99 94 93 93 92 88 87 83 78 71 58 47 29 5
218 212 245 243 202 187 195 259 177 183 194 209 187 180 170 174 140 117 127 118 119 120 126 126 130 130 130 127 123 117 115 113 111 108 104 104 104 105 101 90 85 80 77 69 77 64 52 24 10
285 298 295 283 134 181 226 241 228 193 202 213 212 179 178 167 133 147 145 135 127 119 121 132 133 127 129 123 120 119 107 106 104 102 105 104 102 97 95 93 80 75 72 68 73 71 47 35 28
237 262 261 283 138 185 269 265 253 186 206 205 205 182 171 135 149 158 153 148 140 133 131 134 128 125 132 141 133 127 120 110 107 104 98 98 98 96 91 90 85 78 75 68 66 66 54 52 38
247 238 249 243 157 223 287 274 256 255 221 206 209 184 165 157 160 163 159 154 147 145 145 148 150 149 154 150 139 125 115 107 106 102 101 96 97 94 92 88 86 81 73 69 66 63 60 59 54
247 230 237 262 311 249 147 280 268 262 236 194 189 172 155 157 152 163 164 158 154 154 154 148 148 150 144 141 132 127 132 124 118 111 107 104 102 99 95 89 82 79 76 71 66 63 63 55 52
215 52 18 229 255 300 270 277 251 224 254 211 191 178 161 157 156 162 164 157 155 157 152 152 153 147 145 153 151 148 132 126 124 116 108 100 98 96 96 95 93 86 79 75 70 64 62 61 62
125 83 81 53 214 255 227 228 227 230 229 221 181 176 164 157 151 155 151 148 149 152 156 154 151 146 150 153 151 144 138 135 129 124 116 112 110 107 100 96 91 87 80 74 68 63 60 61 59
168 133 273 286 201 237 75 228 241 277 152 192 180 178 168 159 156 155 154 157 159 158 157 155 153 144 147 147 146 145 142 141 137 135 130 126 118 110 102 97 90 81 76 70 63 54 47 45 46
185 185 162 231 214 267 340 238 242 4 50 38 159 164 162 164 166 164 170 166 165 165 163 162 159 151 150 148 145 148 146 144 142 142 141 139 130 117 109 101 93 88 77 66 58 51 47 37 38
180 213 227 356 62 355 220 258 275 170 148 138 153 164 172 172 172 170 172 170 168 170 170 169 163 155 155 153 153 153 153 151 148 149 148 142 136 130 127 118 104 88 76 67 59 47 40 31 25
182 155 103 191 226 245 250 248 237 230 216 191 181 180 177 173 175 172 175 172 171 175 173 172 168 164 163 162 161 159 158 158 154 152 151 150 147 146 137 123 103 86 70 59 42 38 19 14 7
141 203 217 172 181 219 281 257 263 212 195 193 194 185 180 180 180 176 178 172 171 176 176 176 175 171 169 169 167 165 163 162 160 159 160 157 155 151 148 143 133 119 82 40 2 357 354 345 343
213 189 185 189 228 234 231 259 7 19 186 178 187 186 184 182 180 180 176 167 169 175 178 180 179 180 178 176 173 172 169 167 165 166 167 167 163 160 164 165 165 164 188 276 298 313 318 328 326